Flag for Pakistan Weather past 2 weeks in Peshawar, Pakistan

Now
68 °F

Thunderstorms. Mostly cloudy.


Feels Like: 68 °F
Forecast: 64 / 90 °F
Wind: 30 mph from North

Location: Peshawar Airport

Current Time: Apr 26, 2015 at 11:04:09 PM

Latest Report: Apr 26, 2015 at 10:00 PM


Visibility: 2 mi

Pressure: 29.86 "Hg

Humidity: 88%

Dew point: 64 °F

Location of PeshawarLocation

Historic Weather in Peshawar — Graph

°F

Peshawar temperature yesterday

Maximum temperature yesterday: 99 °F (at 4:00 PM)
Minimum temperature yesterday: 68 °F (at 5:00 AM)
Average temperature yesterday: 84 °F

Past Weeks' High & Low Weather Summary

 TemperatureHumidityPressure
High99 °F (Apr 24, 3:00 PM)94% (Apr 19, 5:00 AM)30.09 "Hg (Apr 19, 5:00 AM)
Low63 °F (Apr 12, 5:00 AM)22% (Apr 22, 4:00 PM)29.65 "Hg (Apr 18, 3:00 PM)
Average79 °F56%29.83 "Hg
* Reported Apr 11 10:00 PM — Apr 26 10:00 PM, Peshawar, Weather by CustomWeather, © 2015

Note: Actual official high and low records may vary slightly from our data, if they occured in-between our weather recording intervals... More about our weather records

Advertising

Peshawar weather history for previous 24 hours

 ConditionsComfort  
Time TempWeatherWind HumidityBarometerVisibility
10:00 PM
Sun, Apr 26
68 °FThunderstorms. Mostly cloudy.30 mph88%29.86 "Hg2 mi
9:11 PM75 °FThunderstorms. Mostly cloudy.16 mph89%29.83 "Hg2 mi
8:00 PM72 °FRain showers. Mostly cloudy.25 mph73%29.86 "Hg1 mi
7:00 PM93 °FDuststorm.51 mph36%29.65 "Hg1 mi
6:00 PM93 °FBroken clouds.14 mph36%29.65 "Hg2 mi
5:00 PM93 °FScattered clouds.14 mph36%29.71 "Hg2 mi
4:00 PM95 °FScattered clouds.12 mph36%29.71 "Hg2 mi
3:00 PM95 °FScattered clouds.14 mph36%29.74 "Hg2 mi
2:00 PM93 °FScattered clouds.12 mph39%29.77 "Hg2 mi
1:00 PM90 °FScattered clouds.14 mph41%29.83 "Hg2 mi
12:00 PM88 °FHaze.9 mph43%29.86 "Hg2 mi
11:00 AM84 °FHaze.9 mph45%29.86 "Hg2 mi
10:00 AM81 °FHaze.9 mph51%29.89 "Hg2 mi
9:00 AM77 °FHaze.7 mph57%29.86 "Hg2 mi
8:00 AM73 °FHaze.7 mph65%29.86 "Hg2 mi
7:00 AM72 °FHaze.5 mph65%29.83 "Hg2 mi
6:00 AM68 °FHaze.No wind69%29.80 "Hg2 mi
5:00 AM70 °FHaze.No wind64%29.77 "Hg2 mi
4:00 AM70 °FHaze.No wind69%29.77 "Hg2 mi
3:00 AM73 °FHaze.No wind65%29.74 "Hg2 mi
2:00 AM75 °FHaze.5 mph61%29.74 "Hg2 mi
1:00 AM77 °FHaze.No wind57%29.74 "Hg2 mi
12:00 AM77 °FHaze.No wind54%29.74 "Hg2 mi
11:00 PM
Sat, Apr 25
79 °FHaze.No wind51%29.74 "Hg2 mi
Weather by CustomWeather, © 2015

See weather overviewHow to use our weather pages